Wind_Speed
15 14 13 12 12 12 12 11 11 11 12 12 11 10 10 9 8 7 7 8 8 9 9 9 10 10 9 8 8 9 10 9 9 10 12 13 14 15 15 15 15 16 16 16 16 16 15 14 13 13 13 14 13 12 11 9 8 7 6 5 5 5 4 4 4 4 4 5 5
15 13 13 12 12 12 13 13 14 14 14 12 11 11 11 10 8 7 6 6 6 7 8 9 9 9 9 9 9 9 9 9 9 9 11 13 14 15 16 17 17 17 18 18 17 16 15 14 12 12 12 12 12 11 10 8 7 7 7 7 6 6 6 6 5 5 5 5 5
14 13 13 13 13 13 15 16 17 16 14 13 13 13 13 11 9 7 6 6 5 6 8 8 9 9 9 9 9 9 9 9 10 10 11 13 14 15 16 17 18 18 18 18 17 16 15 13 12 12 12 12 11 11 10 8 7 7 8 8 8 8 8 8 7 6 6 7 7
15 13 13 13 13 14 16 17 16 14 13 13 14 15 13 11 9 8 7 7 7 8 8 9 9 9 9 10 10 10 10 10 11 12 13 14 14 15 16 17 17 17 17 16 16 15 14 13 13 13 13 13 12 11 10 8 8 9 10 10 10 10 10 10 9 8 8 9 9
16 14 13 13 13 14 15 14 13 13 13 14 15 14 12 10 9 9 9 9 9 9 10 10 11 10 10 11 11 12 12 13 13 14 14 15 15 15 15 16 16 16 15 14 14 14 13 14 14 15 15 14 13 12 11 10 10 11 12 12 12 12 12 12 11 10 10 10 10
15 14 14 13 13 14 14 13 13 14 14 14 13 12 11 10 10 11 11 11 11 11 12 12 12 12 12 13 13 13 14 15 15 15 16 16 16 16 15 15 15 15 14 14 14 14 14 15 16 17 16 16 15 14 13 12 13 14 14 14 14 14 13 13 12 11 11 10 10
15 15 15 14 14 14 14 15 15 16 15 13 12 12 13 13 13 13 13 13 13 13 14 14 14 15 15 15 15 15 16 16 17 17 17 18 18 17 16 16 15 15 15 15 15 15 15 16 17 18 17 16 17 16 15 14 15 15 15 15 15 14 14 13 12 11 10 9 9
16 16 16 16 15 16 17 18 17 16 15 14 14 14 15 15 15 15 15 14 15 15 16 16 16 17 17 17 17 17 17 18 18 18 18 18 18 18 18 17 17 16 16 15 16 16 17 17 18 18 18 18 18 18 16 15 14 14 15 15 14 13 12 11 10 9 8 8 8
18 17 17 17 18 18 19 18 17 16 16 16 16 17 17 17 17 17 16 16 16 17 17 17 18 18 18 18 18 18 18 19 19 19 19 19 19 19 19 19 19 18 18 17 17 17 17 18 19 19 19 19 19 17 15 13 13 13 13 13 12 10 9 8 8 7 7 6 7
18 18 18 19 19 19 19 18 17 17 17 18 19 19 19 19 19 18 18 18 18 19 19 19 19 19 20 20 20 20 20 20 20 21 20 20 20 20 20 20 20 20 19 19 18 18 18 19 20 20 19 18 17 16 13 11 11 11 12 11 10 9 9 8 7 7 7 6 6
19 19 19 20 20 19 19 18 18 18 19 20 20 20 20 19 20 20 20 20 20 21 21 21 21 21 22 22 22 22 22 22 22 22 22 22 21 20 20 20 19 19 19 19 19 19 19 19 19 19 18 17 16 14 12 10 9 10 11 11 10 10 10 9 8 7 7 7 6
20 20 20 20 20 19 19 20 20 21 21 21 21 21 21 21 21 22 22 22 22 23 23 22 23 23 24 25 25 24 24 24 23 23 23 22 22 21 21 20 19 19 18 18 18 18 18 18 18 18 17 16 15 14 13 11 10 10 11 11 10 9 9 9 8 7 7 6 5
20 20 20 20 20 20 21 22 22 22 22 22 22 22 22 23 23 24 24 24 24 24 24 24 24 25 26 26 26 25 25 24 23 23 22 22 21 21 20 20 19 19 18 18 17 17 18 17 17 17 17 16 15 14 12 11 11 10 10 9 9 8 8 8 7 7 6 4 4
21 21 21 21 21 21 22 23 23 23 23 23 23 23 24 25 25 25 25 26 25 26 26 26 25 25 26 26 25 24 24 23 22 22 21 21 20 19 19 19 19 19 19 19 18 17 17 16 15 15 15 15 14 13 11 11 10 10 9 9 8 8 8 7 6 5 4 4 3
21 21 21 21 22 22 23 23 23 23 23 24 24 24 25 26 26 26 27 27 26 26 26 26 26 26 25 25 24 24 23 22 22 22 22 22 21 20 20 20 19 19 19 18 18 17 16 15 14 13 13 13 12 12 11 11 10 10 9 9 8 8 8 7 6 5 5 4 4
22 22 21 22 23 23 23 24 23 23 23 23 23 25 26 26 27 27 27 27 27 27 27 27 27 26 25 24 24 23 23 23 23 23 23 23 22 21 21 20 19 18 17 16 16 15 15 14 13 12 12 12 12 12 12 11 11 11 10 9 9 8 8 7 7 6 6 5 5
22 22 22 23 23 23 23 23 23 23 23 23 24 25 26 27 28 28 28 28 28 28 27 27 27 26 25 24 23 23 23 23 23 23 23 22 22 21 20 19 18 17 16 15 15 15 14 13 13 12 12 12 13 13 13 12 12 11 11 10 9 9 9 8 8 7 7 6 6
22 22 22 23 23 23 24 24 24 24 24 25 25 26 27 28 29 29 29 28 28 28 27 26 26 25 24 24 23 22 21 21 22 21 21 21 20 20 20 19 18 17 17 17 17 17 16 15 14 13 13 13 14 13 13 13 12 12 11 11 10 10 9 9 8 8 7 7 6
22 22 22 22 23 24 24 25 25 25 26 26 27 28 28 28 29 28 28 27 27 26 26 25 25 24 23 23 22 22 21 21 21 21 21 21 20 20 20 19 19 18 18 18 18 18 17 16 15 15 14 14 14 14 14 13 13 13 12 12 11 10 10 9 9 8 8 7 7
22 22 22 22 23 24 24 25 25 26 27 27 28 28 28 27 27 26 26 25 24 24 24 24 24 23 23 22 22 22 22 22 22 22 22 21 21 20 20 19 19 19 19 19 18 18 17 17 16 15 15 15 15 15 14 14 14 14 13 12 12 11 10 10 9 9 8 8 8
21 21 21 22 23 24 24 25 25 26 26 27 27 27 26 26 25 25 24 23 23 23 23 24 24 24 23 23 23 23 23 23 23 23 22 22 21 20 20 19 19 19 19 19 19 18 18 18 17 16 16 16 16 16 15 15 15 14 14 13 12 11 10 10 9 9 9 8 8
21 21 22 22 23 23 24 24 24 25 26 26 26 26 26 25 25 24 23 23 23 23 24 24 24 24 24 24 23 23 23 23 23 23 22 22 21 20 19 19 19 20 20 19 19 19 19 18 18 17 17 17 17 16 16 16 15 14 14 13 12 11 10 10 9 9 9 9 8
21 22 22 22 22 22 22 22 23 24 25 25 26 26 26 25 25 24 23 23 23 24 24 25 25 25 24 24 23 23 23 23 23 23 22 22 21 20 19 19 19 20 20 20 20 20 20 19 19 18 17 17 17 17 16 16 15 15 14 13 12 11 11 11 10 10 10 10 9
22 22 23 23 22 22 22 23 24 25 25 26 26 25 26 26 25 25 24 23 23 23 24 24 24 24 24 23 23 22 22 23 23 23 22 21 21 20 19 19 19 20 21 21 20 20 20 20 19 18 17 17 17 17 16 16 15 14 14 13 13 13 13 12 12 12 12 11 11
23 24 24 24 23 23 23 23 24 25 26 26 26 26 26 26 26 25 24 24 23 23 23 23 23 23 23 23 23 22 22 22 23 23 22 22 21 20 20 20 21 21 21 20 19 20 20 19 18 17 17 17 16 16 16 15 15 14 14 14 14 14 14 14 14 14 13 13 12
24 25 24 24 24 23 24 24 25 25 26 26 26 26 26 26 25 25 24 24 23 23 22 22 22 22 23 23 23 23 23 23 23 22 22 22 21 21 22 22 22 21 20 18 18 18 19 18 18 17 16 16 16 15 15 15 14 14 14 15 15 15 15 15 15 14 13 13 12
24 24 24 23 24 24 24 24 25 25 26 26 26 26 25 25 25 25 24 24 23 23 22 22 22 22 22 22 23 23 24 23 23 22 21 21 21 22 22 22 22 20 19 18 17 17 17 17 16 15 15 14 14 14 14 14 14 14 14 15 15 15 15 15 14 13 13 12 11
23 23 24 24 24 24 24 24 25 26 26 25 25 25 25 24 24 24 24 24 23 22 22 22 22 22 22 22 22 23 24 24 23 23 22 22 22 22 21 21 20 18 17 16 16 16 16 16 15 14 13 13 13 13 13 14 14 14 14 15 15 14 14 14 13 13 12 12 11
23 24 24 24 24 25 25 25 26 26 26 25 25 24 24 24 24 23 23 23 22 22 22 22 22 22 23 23 23 23 24 24 24 24 23 23 22 22 21 20 19 18 16 16 15 15 15 15 14 13 13 12 12 12 13 13 13 14 14 14 14 14 13 13 13 13 12 12 12
23 24 25 25 25 25 26 26 26 26 25 24 24 24 24 23 23 23 23 22 23 23 22 22 23 23 23 24 24 24 24 24 24 24 23 23 23 22 21 20 19 18 16 15 15 14 14 14 14 13 13 12 12 12 13 13 13 14 14 14 13 13 13 13 13 13 13 13 13
24 24 25 25 25 26 26 26 25 25 24 24 23 23 23 23 23 23 23 22 22 22 22 22 23 24 24 24 24 24 24 24 24 23 23 23 23 22 22 21 19 17 16 15 14 14 14 14 13 13 13 12 13 13 14 14 14 14 14 14 14 14 14 14 14 14 14 13 13
24 25 25 25 25 26 26 26 25 24 24 24 24 24 24 24 24 23 22 22 22 22 21 22 23 23 24 24 24 24 24 24 24 23 23 22 22 22 21 19 17 15 14 13 13 13 14 14 13 13 13 13 14 14 14 14 14 14 14 14 15 15 15 15 14 14 14 13 13
24 25 25 25 25 25 26 26 25 25 25 25 25 25 25 25 24 23 22 22 21 21 21 21 22 22 23 23 23 23 24 23 23 23 22 22 21 21 20 18 16 13 12 12 12 13 13 14 14 13 13 13 13 13 13 14 14 14 14 15 15 15 15 15 14 14 13 13 12
23 24 25 25 25 25 25 25 25 25 26 26 26 25 25 24 24 23 22 21 21 21 20 20 21 21 21 21 22 22 22 22 22 22 21 21 21 20 20 18 15 13 11 13 14 14 14 14 14 13 12 12 11 11 12 13 13 14 14 14 14 14 14 14 14 13 13 12 11
23 24 25 25 25 25 25 25 25 25 26 26 25 25 24 24 24 23 22 21 20 20 20 19 19 19 19 19 19 20 20 21 21 20 20 20 20 20 20 18 16 14 13 15 16 16 15 14 13 12 11 11 11 11 11 12 12 13 13 13 13 14 14 14 14 13 12 11 10
23 24 24 24 24 24 24 24 25 25 25 25 25 24 24 24 23 22 21 20 19 19 19 18 17 17 17 17 17 17 18 18 19 19 19 19 19 20 19 18 17 15 15 16 17 16 15 14 13 13 12 11 11 11 11 11 12 12 13 13 13 14 14 14 14 13 11 10 10
22 23 23 24 24 24 24 24 24 25 25 24 24 23 23 23 22 21 19 18 19 19 19 18 17 17 16 16 16 16 15 16 17 18 18 19 19 19 18 18 17 16 15 15 16 15 14 13 13 13 12 12 12 11 12 12 12 13 13 13 14 14 14 15 14 12 11 10 10
21 22 22 23 24 24 23 23 24 24 24 23 23 22 21 21 21 20 19 18 19 20 20 19 19 18 17 16 16 15 15 15 16 17 18 18 18 17 17 17 18 17 16 14 14 13 13 12 12 12 12 12 12 12 12 12 13 13 14 14 15 15 15 15 14 12 10 10 9
20 21 22 22 23 23 23 23 23 23 23 22 21 21 21 21 21 20 20 19 20 21 21 21 20 19 17 16 17 17 16 16 16 17 18 18 17 17 17 17 18 17 16 14 13 12 12 11 12 12 12 12 12 12 12 12 13 14 15 15 16 16 16 15 13 12 11 10 10
19 20 20 21 21 22 22 22 22 22 21 21 21 21 21 21 21 21 20 20 20 21 21 21 20 19 18 18 18 19 18 18 17 17 18 18 18 17 17 17 17 16 15 13 13 12 12 12 12 13 13 12 12 12 13 13 13 14 15 16 16 17 16 15 13 12 11 11 12
18 19 20 20 20 21 21 22 22 21 20 21 21 21 21 21 21 21 21 21 21 21 21 21 20 20 19 19 20 20 20 19 18 18 17 17 17 17 17 17 16 16 14 13 12 12 11 11 12 12 13 13 12 13 13 13 14 14 15 16 17 17 16 15 14 13 13 13 14
Wind_Direction
184 182 180 179 179 180 184 190 196 202 205 208 213 222 229 231 234 228 217 208 208 211 215 218 219 218 215 208 207 209 213 214 203 193 188 186 183 181 183 187 192 192 188 183 180 178 175 172 169 168 169 170 169 169 170 174 183 191 194 194 188 187 187 183 185 188 188 187 192
181 179 180 181 181 184 188 193 197 199 201 204 211 218 221 221 222 219 209 196 201 209 214 215 215 210 201 192 191 196 204 208 202 192 184 178 176 176 177 178 180 180 178 176 174 172 168 166 165 165 165 165 163 159 158 163 174 177 174 171 167 166 165 161 159 157 155 152 153
179 179 181 183 185 189 192 192 192 194 197 203 210 212 212 211 209 206 201 197 207 214 211 206 204 200 191 182 179 182 188 195 199 192 181 171 167 165 165 166 167 167 166 165 164 163 162 161 163 163 161 157 152 146 144 150 161 160 153 147 145 145 145 141 138 136 136 138 142
180 179 180 184 187 189 190 187 187 190 197 202 202 199 197 199 197 194 193 198 205 203 196 190 187 185 182 176 171 169 171 175 181 179 171 165 160 156 155 156 157 157 157 156 156 156 156 157 159 156 151 145 138 133 133 139 146 144 136 129 128 128 127 126 126 129 133 137 143
177 177 178 181 183 186 186 184 187 192 196 195 187 181 179 185 188 188 186 185 183 182 181 178 175 174 174 172 167 163 160 161 164 164 163 160 157 154 152 151 150 150 150 150 149 148 149 149 147 142 136 131 126 122 124 132 135 130 125 121 120 119 118 119 124 130 134 135 136
170 171 173 175 178 181 182 184 189 190 188 184 176 171 171 178 181 179 174 170 170 170 169 167 165 166 167 167 164 159 154 152 152 155 156 154 152 152 151 148 146 144 143 142 141 141 141 138 133 128 124 120 116 116 120 127 127 124 119 116 115 116 116 116 120 124 126 124 123
163 164 166 169 173 177 179 180 180 178 175 174 172 170 171 174 174 170 167 165 165 164 161 158 157 158 159 160 157 153 149 145 143 145 147 146 145 146 145 143 140 137 135 135 135 135 134 132 125 121 118 117 115 117 121 125 124 120 116 111 111 113 114 113 115 117 118 119 120
161 162 163 167 172 173 172 170 169 168 168 169 168 165 164 165 164 163 162 161 158 156 154 152 151 152 154 154 151 147 144 140 137 137 137 137 137 137 135 134 132 129 129 130 131 132 131 130 124 120 118 117 116 117 121 124 122 118 114 110 109 111 113 114 118 121 123 125 126
154 156 159 163 166 165 163 161 163 164 163 160 157 154 153 154 156 156 153 150 150 150 148 145 145 147 148 147 144 141 138 135 131 129 129 130 130 128 126 125 123 122 123 125 127 129 128 126 122 120 119 118 117 117 120 123 121 116 113 110 111 113 116 118 122 124 125 125 121
144 146 150 153 154 155 155 155 158 160 157 150 147 145 145 147 149 148 145 144 145 144 140 138 139 139 139 138 136 134 131 129 126 124 123 123 123 121 120 118 117 117 118 120 121 123 123 120 117 116 116 116 115 115 117 118 117 114 111 111 114 118 118 117 116 114 112 109 107
135 138 140 141 143 146 148 147 148 149 146 141 139 138 138 139 140 139 140 141 140 136 132 132 133 132 130 129 127 126 125 124 123 121 119 117 116 114 113 113 113 113 113 114 115 116 115 113 112 111 110 110 110 110 109 109 109 107 108 109 114 116 114 110 107 103 100 98 98
129 131 133 135 138 141 141 139 137 137 135 133 132 131 131 131 131 133 135 137 134 130 127 127 127 125 123 122 121 121 121 120 119 118 116 112 110 108 106 106 106 107 106 106 106 106 106 107 107 107 106 105 103 102 102 102 102 104 106 109 111 110 106 102 99 95 93 93 95
124 125 126 129 133 135 134 130 128 127 126 125 123 124 124 123 125 128 131 130 127 125 123 122 121 119 117 116 116 116 116 116 115 114 111 108 105 102 100 99 99 98 97 97 97 98 99 100 101 102 101 99 98 98 99 101 103 104 107 108 107 103 98 93 89 87 86 88 88
120 120 121 123 127 128 126 122 121 120 119 119 118 119 119 118 121 124 125 123 121 119 118 117 116 114 112 111 110 110 109 109 108 106 104 102 100 98 96 95 94 94 94 94 93 93 93 93 93 94 94 95 95 97 99 101 103 103 103 101 96 91 86 81 77 74 71 69 65
114 115 116 119 120 119 118 115 114 114 114 113 115 116 115 115 116 118 119 116 115 114 113 112 110 108 108 107 106 105 104 104 103 102 101 100 99 98 97 96 96 95 94 94 92 89 86 84 84 86 88 90 92 94 96 97 97 95 91 86 82 77 73 68 65 60 55 49 44
108 110 112 113 113 112 111 110 109 109 109 109 112 112 112 112 113 114 113 111 111 110 109 107 106 105 105 104 104 104 104 104 103 103 103 102 102 101 100 99 98 97 95 94 91 87 84 82 81 82 84 86 87 87 87 86 85 82 79 74 70 67 64 61 56 53 49 43 41
104 105 106 107 107 106 106 106 106 106 106 107 108 109 109 110 110 110 110 109 109 108 107 107 106 105 105 105 105 106 106 106 105 104 104 103 103 102 101 100 99 98 98 96 94 91 89 86 84 82 82 81 79 78 77 76 74 73 70 67 65 63 61 59 56 53 50 47 46
98 100 102 103 103 103 103 104 104 104 105 105 105 106 107 108 108 109 109 109 109 109 108 108 108 108 107 107 108 108 107 106 105 104 104 103 103 102 100 99 98 98 96 95 93 91 89 86 83 80 78 75 72 70 68 68 68 68 67 66 65 63 62 60 58 56 55 55 56
94 96 98 99 100 102 102 103 104 104 104 105 106 107 107 108 109 110 110 110 111 111 110 109 109 110 110 110 110 109 108 106 105 104 103 102 101 100 98 96 95 93 91 89 87 86 84 81 78 74 71 69 67 66 65 65 66 67 68 68 68 67 66 66 64 63 63 64 67
92 93 95 97 99 101 102 103 104 105 106 106 107 107 107 107 107 108 108 109 110 111 110 110 110 110 111 112 111 110 108 106 104 102 101 99 97 96 95 94 92 90 88 86 84 82 79 76 72 69 67 66 66 66 66 68 69 71 72 72 73 73 73 73 72 73 72 73 74
89 90 92 95 97 98 100 102 103 105 106 105 105 105 104 104 103 102 103 105 107 108 109 110 111 111 112 112 111 109 108 106 103 101 98 96 94 93 93 92 91 90 87 84 82 79 75 72 69 67 66 67 68 70 71 73 75 76 77 78 79 79 79 79 79 78 76 75 73
89 90 91 92 93 96 98 100 102 102 103 103 103 103 103 102 102 102 103 104 105 107 109 112 113 113 112 111 110 109 107 105 102 100 98 96 95 94 93 92 91 89 86 82 79 76 73 70 68 67 68 71 73 75 77 78 79 80 81 81 82 82 81 81 78 76 73 69 66
91 91 91 91 92 94 97 99 100 100 101 102 103 104 105 105 106 108 109 109 110 111 113 115 115 114 112 111 110 109 107 105 103 100 99 98 97 96 95 93 91 88 84 79 76 73 72 71 70 70 73 76 79 80 80 80 80 80 81 82 82 81 80 77 74 71 67 63 58
93 93 93 93 95 96 98 100 100 101 102 103 104 106 108 109 111 112 113 113 113 113 114 115 114 113 112 111 110 109 108 106 104 102 101 99 99 98 97 94 90 85 81 77 73 71 70 71 72 75 77 80 82 82 81 79 79 79 80 81 81 79 77 74 70 66 62 59 54
95 96 97 97 98 99 100 101 101 102 103 105 107 107 108 109 110 110 111 111 111 112 113 114 114 114 113 112 111 109 107 106 105 105 104 102 100 98 95 91 86 83 80 77 73 70 69 70 73 77 81 82 83 83 81 80 79 79 79 79 78 77 74 71 67 64 60 57 54
97 98 99 100 100 100 99 99 100 102 103 105 106 106 106 106 107 108 108 108 109 110 112 113 115 115 115 114 113 111 108 107 106 106 106 105 103 99 95 91 89 87 86 84 80 75 72 71 73 76 80 83 84 84 83 81 80 78 77 75 73 71 68 65 63 60 57 55 52
98 99 100 101 101 99 99 100 101 102 103 104 104 104 104 105 105 106 106 107 108 110 112 113 115 116 117 117 115 112 110 109 109 109 109 109 107 104 100 97 95 93 90 87 84 81 78 75 72 73 76 80 82 82 81 80 78 75 72 70 66 63 60 57 54 52 50 48 45
98 99 101 102 101 100 100 101 102 102 103 103 103 103 103 104 104 104 105 106 108 109 111 112 114 116 116 115 114 113 112 111 111 111 112 112 110 108 105 102 99 95 92 87 84 82 80 75 69 66 68 72 75 77 77 76 74 72 68 65 61 57 53 50 46 43 40 37 34
99 100 101 101 101 101 101 101 101 101 102 102 102 102 102 102 102 103 104 106 107 108 108 110 113 114 113 112 112 112 112 111 110 110 110 110 108 107 105 103 100 97 92 87 84 82 79 74 67 61 60 63 68 71 73 73 72 70 66 62 58 53 49 45 41 37 33 31 28
99 100 101 100 100 99 100 100 100 100 100 100 101 101 101 101 101 102 103 104 104 105 107 110 112 111 110 110 110 110 109 109 109 109 108 106 105 105 104 103 100 96 92 87 84 81 78 74 67 60 58 62 67 71 74 74 73 70 66 61 56 51 47 43 39 35 32 29 27
99 100 100 100 99 98 99 100 100 100 100 100 100 100 99 99 100 100 101 102 103 106 110 112 111 110 109 109 109 108 107 107 107 106 105 104 104 104 103 101 98 94 90 86 83 80 76 72 67 62 62 67 72 75 76 74 71 67 63 58 54 50 47 43 38 35 31 28 26
101 101 101 100 99 99 100 101 101 101 100 100 99 99 98 99 100 101 102 104 107 109 111 111 110 109 108 108 107 107 106 105 104 104 104 104 104 102 100 97 94 91 87 83 80 78 75 72 69 68 70 74 77 75 72 67 63 59 57 54 51 48 45 41 37 33 29 27 27
102 103 102 101 100 101 102 103 102 102 101 100 100 99 99 101 102 102 104 105 107 108 108 108 108 107 106 106 105 105 104 103 103 103 104 104 102 100 97 94 90 88 87 85 84 81 79 77 76 76 76 77 74 68 61 56 53 52 52 51 49 45 42 37 33 30 27 25 26
104 104 103 103 103 103 104 104 104 103 102 101 101 101 101 102 101 101 101 101 103 104 104 105 106 106 106 106 105 104 103 103 104 104 104 104 102 99 95 90 87 86 91 96 94 89 84 81 80 77 74 70 63 55 49 47 47 48 49 48 45 41 37 32 28 25 23 22 23
106 105 104 104 104 104 104 104 104 103 102 100 100 100 101 100 99 98 97 98 99 99 100 102 104 106 107 107 107 105 104 103 103 103 103 103 101 97 92 86 83 84 92 100 96 90 83 78 73 67 61 54 49 44 42 42 45 46 45 42 38 33 29 24 22 20 19 19 22
106 105 105 104 104 104 104 103 103 102 100 99 99 99 99 98 97 96 96 97 97 97 97 98 101 103 104 105 105 105 104 104 103 102 102 101 99 96 91 87 83 84 90 96 91 84 76 70 61 52 46 43 43 42 42 43 43 41 38 33 28 24 20 18 17 17 18 20 24
106 106 105 104 104 103 103 102 101 100 99 98 98 98 97 97 97 96 96 97 96 96 96 97 97 98 99 101 103 104 106 107 106 104 102 101 99 96 92 87 83 82 84 87 84 78 71 64 54 46 43 44 46 47 46 43 39 34 30 26 21 17 15 15 17 19 22 25 27
106 106 105 104 104 103 102 101 99 98 98 97 97 97 97 96 96 96 96 96 96 96 96 95 95 95 97 100 102 104 106 108 108 107 104 102 100 96 92 85 79 76 75 75 73 69 65 60 54 49 47 50 50 48 44 38 31 27 24 22 18 15 14 16 20 25 29 31 30
105 105 104 104 102 101 100 98 97 96 97 96 96 96 96 96 97 97 97 97 97 97 97 96 96 96 98 100 102 103 103 105 107 106 104 101 98 95 91 85 78 73 69 63 59 56 54 53 54 53 51 50 48 43 37 30 25 22 21 19 16 14 15 19 25 31 33 31 29
103 103 102 101 101 99 98 96 96 96 96 97 97 97 98 98 99 100 100 100 99 98 98 98 98 99 100 101 101 101 101 101 103 103 101 99 97 95 91 86 80 75 69 60 53 50 48 48 50 49 47 44 40 34 29 24 21 21 21 18 15 12 13 19 25 30 30 26 23
102 101 100 100 99 98 97 97 97 97 97 98 98 99 100 102 103 104 103 102 101 100 100 100 100 101 101 101 101 100 99 97 97 97 98 98 97 94 91 86 80 75 69 62 53 48 45 43 44 43 40 35 31 28 24 22 20 20 20 16 12 10 11 15 20 23 22 19 17
Height
755 755 756 757 758 759 760 761 762 764 764 765 765 766 767 767 767 768 768 768 768 768 769 769 770 770 771 771 772 772 773 773 774 774 774 774 775 775 776 777 778 779 779 780 781 781 781 781 782 782 783 784 784 785 786 787 787 788 789 789 790 791 792 793 793 794 794 795 796
754 755 756 757 757 758 759 760 761 762 763 764 765 765 766 766 767 767 767 767 768 768 769 769 769 770 770 771 771 772 772 773 773 774 774 774 775 775 776 777 777 778 779 779 780 780 780 781 781 782 783 784 784 785 786 787 788 788 789 790 790 791 792 793 793 794 794 795 796
754 755 756 756 757 758 759 759 760 761 762 763 764 764 765 765 766 767 767 767 768 768 768 769 769 770 770 771 771 771 772 772 773 774 774 774 775 775 776 777 777 778 778 779 779 779 780 780 781 782 783 784 784 785 786 787 788 789 789 790 791 791 792 792 793 794 794 795 795
754 754 755 756 757 757 758 759 759 760 761 762 763 764 764 764 765 766 766 767 767 768 768 768 769 769 770 770 771 771 771 772 773 773 774 774 775 775 776 777 777 778 778 778 779 779 779 779 780 781 783 784 784 785 785 787 788 789 789 790 791 791 792 792 793 794 794 794 795
753 754 755 756 756 757 758 758 759 760 761 762 762 763 763 764 764 765 766 766 767 767 768 768 768 769 769 770 770 771 771 772 772 773 773 774 774 775 776 776 777 777 777 778 778 778 779 779 780 782 783 784 784 784 785 787 788 789 789 790 791 791 792 792 793 794 794 794 795
752 754 754 755 756 757 757 758 759 760 761 761 762 762 763 763 764 764 765 766 766 767 767 768 768 769 769 769 770 770 771 772 772 772 773 773 774 775 775 776 776 776 777 777 778 778 779 780 781 782 783 784 784 784 786 787 788 789 789 790 791 791 792 793 793 794 794 794 795
752 753 754 755 756 757 757 758 759 759 760 761 761 762 762 763 763 764 764 765 766 766 767 767 768 768 769 769 770 770 771 772 772 772 773 773 774 775 775 776 776 776 777 777 778 779 779 780 781 782 783 783 784 785 787 788 788 789 789 790 791 792 792 793 794 794 794 795 795
752 753 754 754 755 756 757 758 758 759 759 760 761 762 762 762 763 764 764 765 765 766 767 767 768 768 768 769 769 770 771 772 772 772 773 774 774 775 776 776 776 777 777 778 779 779 780 781 781 782 782 783 784 786 787 788 789 789 789 790 791 792 793 793 794 794 795 795 795
752 753 753 754 755 756 757 757 758 758 759 760 761 761 762 762 763 763 764 764 765 766 767 767 768 768 769 769 769 770 771 772 772 773 773 774 775 776 776 777 777 777 778 779 779 780 780 781 782 782 783 784 785 786 788 788 789 789 790 791 792 793 794 794 794 795 795 796 796
752 753 754 754 755 756 757 757 757 758 759 760 761 761 762 762 763 763 764 765 765 766 767 768 768 769 769 769 770 770 771 772 773 773 774 775 776 776 777 777 777 778 779 780 780 781 781 782 783 784 784 785 786 787 788 789 789 790 791 792 793 794 795 795 796 796 796 796 796
753 754 754 755 755 756 756 757 758 759 759 760 761 762 762 763 763 764 764 765 765 766 768 768 769 769 769 770 770 771 772 773 773 774 775 775 776 777 777 778 779 779 781 781 782 782 783 784 784 785 785 786 787 788 789 789 790 791 792 793 794 795 796 796 796 796 796 797 797
754 754 755 755 756 756 757 757 758 759 760 761 761 762 763 763 764 764 764 765 766 767 768 769 770 770 770 770 771 772 773 773 774 774 775 776 777 778 779 779 780 781 782 783 783 784 784 785 785 786 787 787 788 789 789 790 791 792 793 794 795 796 796 797 797 797 797 797 797
755 755 756 756 757 757 758 758 759 760 761 761 762 763 764 764 764 764 765 765 766 768 769 769 770 771 770 771 772 773 773 774 774 775 776 776 778 779 780 781 782 783 784 784 784 785 786 786 787 787 788 788 789 789 790 790 791 793 794 795 796 796 797 797 797 797 797 797 797
756 757 757 757 758 758 759 759 760 761 762 762 763 764 764 764 764 765 765 766 767 769 769 770 771 771 771 772 773 774 774 775 775 776 777 778 779 780 781 783 784 784 784 785 786 786 787 788 788 789 789 789 790 790 791 791 792 793 794 795 796 796 796 796 796 796 796 797 797
757 758 759 759 759 760 760 761 762 763 763 764 764 764 764 764 765 766 766 767 768 769 770 771 772 772 772 773 774 775 775 776 777 777 778 779 780 782 783 784 785 786 786 786 786 787 788 789 789 790 790 791 792 792 792 792 792 793 794 795 795 796 796 796 796 796 797 797 797
759 759 760 760 761 761 762 762 763 764 764 765 765 764 764 765 766 766 767 768 769 770 771 772 773 773 774 774 775 776 777 778 778 779 779 780 781 782 784 785 786 787 787 787 787 787 788 789 790 791 792 793 793 793 793 793 793 793 794 794 795 795 796 796 796 796 797 797 797
760 761 762 762 762 763 763 764 764 765 765 766 766 766 766 766 766 767 768 769 770 771 772 773 774 774 775 776 777 778 779 779 779 780 780 781 782 783 784 785 787 787 788 788 787 788 789 790 792 793 794 794 794 794 794 793 793 793 794 794 795 796 796 796 797 797 797 796 796
762 763 763 764 764 764 765 765 765 766 766 766 767 767 767 767 768 769 770 771 772 772 773 774 775 775 776 777 779 779 779 780 780 781 781 782 783 784 785 786 787 788 788 788 788 789 790 791 793 794 794 794 794 794 794 794 794 794 794 795 796 796 797 797 797 797 796 796 797
764 764 765 765 766 766 766 766 766 767 767 767 768 768 769 769 770 771 771 772 773 774 774 775 776 777 778 778 779 780 780 781 781 782 783 784 784 785 786 787 788 788 789 789 789 790 791 792 794 794 794 795 795 795 795 795 794 795 795 796 796 797 797 797 797 797 797 797 797
765 766 767 767 767 767 767 767 768 768 768 768 769 769 770 772 772 773 773 774 774 775 775 776 777 778 779 779 780 780 781 782 782 783 784 784 785 786 787 788 788 789 789 789 790 791 792 793 794 794 794 795 795 795 795 795 795 795 796 796 797 797 797 797 797 797 797 797 797
767 768 768 769 768 768 768 769 769 769 769 769 770 771 772 773 774 774 775 775 776 776 777 777 778 779 779 780 781 781 782 783 783 784 785 785 786 787 788 789 789 789 790 790 791 792 793 793 794 794 795 795 796 796 796 796 796 796 796 797 797 798 798 797 797 797 797 797 797
769 769 769 769 769 769 770 771 771 771 770 771 772 773 773 774 775 776 777 777 777 777 778 779 779 780 781 781 782 782 783 784 784 785 786 786 787 788 789 789 790 790 791 791 792 793 793 794 794 795 796 796 797 797 797 797 797 797 797 797 798 798 798 798 798 798 798 797 797
770 770 771 770 771 771 772 773 773 772 772 773 774 774 774 775 776 777 778 778 778 779 780 780 781 781 781 782 783 783 784 784 785 786 787 787 788 789 790 790 791 791 792 793 793 794 794 794 795 796 797 797 798 798 797 797 797 797 798 798 798 799 799 799 798 798 797 797 797
771 771 772 772 773 773 774 774 774 774 774 775 775 775 775 776 778 779 779 779 780 780 781 782 782 782 783 783 784 784 785 785 786 787 788 789 789 790 791 791 792 792 793 794 794 794 795 795 796 797 798 798 798 798 798 798 798 798 799 799 799 799 799 799 798 797 797 797 796
772 773 773 774 774 775 775 775 775 775 776 776 776 776 777 778 779 779 779 779 780 781 782 782 783 783 784 785 785 786 786 787 787 787 788 789 790 791 792 792 792 793 794 794 795 796 796 797 797 798 798 798 798 798 798 798 799 799 799 799 799 799 799 798 798 797 797 797 797
773 774 774 775 776 776 776 776 776 776 776 777 777 777 778 779 779 779 780 780 781 782 783 784 784 785 786 786 787 788 788 788 788 788 789 790 791 792 792 793 793 794 795 796 797 797 798 798 798 799 799 799 799 799 799 799 799 799 799 799 799 799 798 798 797 797 797 797 797
775 775 776 777 777 777 777 777 777 777 778 778 778 779 779 780 780 781 781 782 783 784 784 785 786 786 787 788 788 789 789 789 789 789 790 791 792 792 793 794 794 795 796 798 798 799 799 799 799 799 799 799 799 799 799 799 800 799 799 799 799 798 798 798 798 798 798 798 798
777 777 778 778 778 779 779 779 779 779 779 779 779 780 780 781 781 782 782 783 784 784 785 786 787 788 789 789 789 789 789 790 790 790 791 792 793 793 794 794 795 797 798 799 799 800 800 800 800 800 800 799 799 799 799 799 799 799 799 799 799 799 799 799 799 799 799 799 798
779 779 779 779 780 780 780 780 780 780 780 780 781 781 782 782 783 783 784 784 785 786 787 787 788 789 789 790 790 790 790 790 791 791 792 793 794 794 795 795 796 797 799 799 800 800 801 801 800 800 800 800 800 799 799 799 799 799 799 799 799 799 799 799 799 799 799 799 798
780 780 780 781 781 781 781 781 781 781 782 782 782 783 783 783 784 784 785 786 786 787 788 789 789 790 790 790 791 791 791 791 792 792 793 794 794 795 796 796 797 798 799 800 801 801 801 801 801 801 800 800 800 800 800 800 800 800 800 800 800 800 800 800 799 799 799 799 798
781 782 782 782 782 782 782 782 783 783 783 784 784 784 784 784 785 786 787 787 788 789 790 790 790 790 791 791 792 792 792 792 793 793 794 794 795 795 796 797 798 799 800 801 801 801 801 801 801 801 800 800 800 800 800 801 801 801 801 801 800 800 800 800 799 799 799 798 798
783 783 783 783 783 784 784 784 784 784 785 785 785 785 786 786 787 788 789 789 790 791 791 791 791 791 792 792 793 793 793 793 794 794 794 795 796 796 797 798 799 800 800 801 801 801 802 802 801 801 801 801 801 801 801 801 801 801 801 801 800 800 800 799 799 799 799 798 797
785 784 784 785 785 785 785 786 786 786 786 787 787 787 788 789 789 790 791 791 792 792 792 792 792 793 793 794 794 794 794 794 794 795 796 796 796 797 798 799 799 800 801 801 801 802 802 802 802 802 802 802 802 802 802 801 801 801 801 800 800 800 800 799 799 799 798 798 797
786 786 786 786 787 787 787 788 788 788 788 788 789 789 790 790 791 792 792 793 793 793 793 793 793 794 794 794 794 794 795 795 796 796 797 797 797 798 798 799 800 800 801 801 801 802 802 803 803 803 803 803 802 802 802 801 801 801 801 801 800 800 800 799 799 799 798 798 797
788 788 788 788 788 789 789 789 789 789 789 789 790 791 792 792 792 793 793 794 794 794 794 794 794 795 795 795 795 795 796 796 797 797 798 798 798 799 799 799 800 801 801 801 802 802 803 803 803 803 803 803 802 802 802 802 801 801 801 801 801 800 800 799 799 799 798 797 797
789 789 789 789 789 790 790 790 790 790 791 791 792 792 793 793 793 794 794 794 794 794 794 795 795 795 795 796 796 796 797 797 798 798 799 799 799 799 800 800 801 802 802 802 802 802 803 803 803 803 803 803 802 802 802 802 802 801 801 801 801 800 800 799 799 798 798 797 796
791 791 790 790 791 791 791 792 792 792 792 793 793 794 794 794 794 795 795 795 795 795 795 795 796 796 796 797 797 797 798 798 799 799 799 800 800 800 801 801 801 802 803 803 802 803 803 803 803 803 803 803 803 802 802 802 802 802 801 801 801 800 799 799 798 798 797 796 796
792 792 792 792 792 793 793 793 793 793 793 794 794 794 795 795 795 796 796 796 796 796 796 796 796 797 797 798 798 798 799 799 799 799 800 800 801 801 801 802 802 802 803 803 803 803 803 803 803 803 803 803 803 803 803 802 802 802 801 801 800 800 799 799 798 797 797 796 796
794 794 794 794 794 794 794 794 794 794 794 795 795 796 796 796 796 797 797 797 797 797 797 797 797 798 798 799 799 799 799 800 800 800 801 801 802 802 802 802 802 803 803 804 804 804 804 804 803 803 803 803 803 803 803 802 802 801 801 800 800 799 799 798 798 797 797 796 796
795 795 795 795 795 795 795 795 795 796 796 796 797 797 797 797 798 798 798 798 798 798 798 798 799 799 799 799 799 799 800 800 801 801 801 802 802 802 803 803 803 803 804 804 804 804 804 804 804 804 803 803 803 803 802 802 801 801 800 800 799 799 798 798 797 797 796 796 795
797 797 796 796 796 796 796 797 797 797 798 798 798 798 799 799 799 799 799 799 799 799 799 799 799 800 800 800 800 800 801 801 802 802 802 802 803 803 803 803 804 804 804 805 805 805 805 805 805 804 804 803 803 803 802 802 801 800 800 799 799 799 798 797 797 796 796 795 794